User: anonymous   Login
Location: Unspecified
(0.0000°N, 0.0000°E)
Time: 05:45:12
(UTC+00:00)
Language:

TBA - TO BE ASSIGNED - Orbit

View from above orbital plane
View from above orbital plane
View from above satellite
View from above satellite

Ground track
Ground track

The orbit is defined by the following mean orbital elements,

1 67335U          26145.36799883 +.00000000 +00000-0 +57957-3 0 00004
2 67335  43.0017 153.7854 0001751 268.9615  91.1036 15.27595785    09
Epoch (UTC): 25 May 2026 08:49:55
Eccentricity: 0.0001751
inclination: 43.0017°
perigee height: 482 km
apogee height: 484 km
right ascension of ascending node: 153.7854°
argument of perigee: 268.9615°
revolutions per day: 15.27595785
mean anomaly at epoch: 91.1036°

The dashed part of the orbit path shows where the satellite is in the earth's shadow,  

DLR